Location: Orange Harbor Mobile Home Park
(26.6923°N, 81.7937°W)
Time: 08:39:34
(UTC+00:00)

ADEOS - Pass Details

Date: 19 September 2020
Orbit: 792 x 794 km, 98.9° (Epoch: 29 October)

Event Time Altitude Azimuth Distance (km) Brightness Sun altitude
Rises 10:08:48 0° 5° (N) 3,291 7.0 -15.5°
Reaches altitude 10° 10:11:11 10° 360° (N) 2,359 6.1 -14.9°
Maximum altitude 10:16:11 49° 286° (WNW) 1,008 3.7 -13.8°
Drops below altitude 10° 10:21:11 10° 212° (SSW) 2,350 5.6 -12.7°
Sets 10:23:33 0° 207° (SSW) 3,276 6.4 -12.2°
